TAP1931 LPPR-LPPT

Flight info

Callsign TAP1931
Flight time N/A
Altitude 33000
Route MANIK DCT ABRIL DCT XAMAX
Aircraft A320/M-SDE3FGHIRWY/LB1

Departure

Time 2026-05-04 18:52
Airport Francisco de Sá Carneiro Airport (LPPR)

Arrival

Time N/A
Airport Lisbon Humberto Delgado Airport (LPPT)
Time Latitude Longitude Altitude Speed Heading
2026-05-04 18:41 41.23774 -8.67296 243 ft 0 kts 50°
2026-05-04 18:47 41.23766 -8.67309 242 ft 2 kts 50°
2026-05-04 18:47 41.23756 -8.67325 242 ft 2 kts 50°
2026-05-04 18:47 41.23745 -8.67342 242 ft 2 kts 51°
2026-05-04 18:48 41.23735 -8.67359 242 ft 2 kts 52°
2026-05-04 18:48 41.23725 -8.67377 242 ft 2 kts 60°
2026-05-04 18:48 41.23720 -8.67397 240 ft 2 kts 129°
2026-05-04 18:48 41.23722 -8.67400 240 ft 0 kts 134°
2026-05-04 18:49 41.23715 -8.67390 240 ft 7 kts 129°
2026-05-04 18:49 41.23634 -8.67337 242 ft 16 kts 172°
2026-05-04 18:50 41.23526 -8.67385 238 ft 18 kts 204°
2026-05-04 18:50 41.23403 -8.67366 237 ft 17 kts 169°
2026-05-04 18:50 41.23328 -8.67460 239 ft 18 kts 259°
2026-05-04 18:50 41.23320 -8.67514 235 ft 1 kts 259°
2026-05-04 18:51 41.23319 -8.67522 236 ft 3 kts 258°
2026-05-04 18:51 41.23304 -8.67618 237 ft 13 kts 259°
2026-05-04 18:51 41.23312 -8.67722 240 ft 11 kts 309°
2026-05-04 18:51 41.23402 -8.67758 238 ft 24 kts 349°
2026-05-04 18:52 41.23824 -8.67870 222 ft 97 kts 349°
2026-05-04 18:52 41.24685 -8.68093 207 ft 151 kts 349°
2026-05-04 18:52 41.25812 -8.68384 584 ft 167 kts 347°
2026-05-04 18:52 41.26944 -8.68684 1416 ft 167 kts 346°
2026-05-04 18:53 41.28119 -8.68997 1950 ft 181 kts 345°
2026-05-04 18:53 41.29429 -8.69348 2268 ft 204 kts 346°
2026-05-04 18:53 41.30914 -8.69743 2649 ft 230 kts 345°
2026-05-04 18:53 41.32549 -8.70175 3256 ft 245 kts 346°
2026-05-04 18:54 41.34240 -8.70613 4164 ft 250 kts 346°
2026-05-04 18:54 41.35956 -8.71057 5091 ft 253 kts 346°
2026-05-04 18:54 41.37624 -8.71794 5928 ft 255 kts 327°
2026-05-04 18:54 41.38914 -8.73404 6748 ft 258 kts 302°
2026-05-04 18:55 41.39528 -8.75648 7569 ft 263 kts 277°
2026-05-04 18:55 41.38247 -8.80141 9257 ft 280 kts 223°
2026-05-04 18:55 41.36464 -8.81333 10082 ft 293 kts 193°
2026-05-04 18:56 41.34395 -8.81305 10617 ft 311 kts 175°
2026-05-04 18:56 41.32168 -8.80879 10855 ft 335 kts 173°
2026-05-04 18:56 41.29783 -8.80347 11048 ft 358 kts 172°
2026-05-04 18:56 41.27282 -8.79761 11492 ft 370 kts 172°
2026-05-04 18:57 41.24729 -8.79171 12157 ft 375 kts 173°
2026-05-04 18:57 41.22143 -8.78591 12838 ft 379 kts 174°
2026-05-04 18:57 41.19526 -8.78023 13533 ft 383 kts 174°
2026-05-04 18:57 41.16881 -8.77459 14166 ft 387 kts 175°
2026-05-04 18:58 41.14206 -8.76887 14760 ft 391 kts 175°
2026-05-04 18:58 41.11509 -8.76310 15358 ft 395 kts 175°
2026-05-04 18:58 41.08783 -8.75763 15939 ft 396 kts 179°
2026-05-04 18:58 41.06062 -8.75936 16491 ft 390 kts 197°
2026-05-04 18:59 41.03424 -8.76773 17067 ft 391 kts 199°
2026-05-04 18:59 41.00777 -8.77656 17620 ft 394 kts 200°
2026-05-04 18:59 40.98111 -8.78556 18197 ft 396 kts 200°
2026-05-04 18:59 40.95432 -8.79464 18714 ft 399 kts 200°
2026-05-04 19:00 40.92726 -8.80378 19218 ft 402 kts 200°
2026-05-04 19:00 40.90049 -8.81274 19696 ft 404 kts 200°
2026-05-04 19:00 40.87314 -8.82183 20196 ft 406 kts 200°
2026-05-04 19:00 40.84567 -8.83091 20684 ft 408 kts 200°
2026-05-04 19:01 40.81799 -8.84007 21169 ft 411 kts 200°
2026-05-04 19:01 40.79019 -8.84927 21609 ft 413 kts 200°
2026-05-04 19:01 40.76224 -8.85853 22078 ft 415 kts 200°
2026-05-04 19:01 40.73418 -8.86782 22541 ft 417 kts 200°
2026-05-04 19:02 40.70593 -8.87718 22976 ft 419 kts 200°
2026-05-04 19:02 40.68720 -8.88338 23078 ft 420 kts 200°
2026-05-04 19:02 40.65892 -8.89273 23113 ft 419 kts 200°
2026-05-04 19:02 40.63064 -8.90207 23111 ft 419 kts 200°
2026-05-04 19:03 40.60235 -8.91139 23115 ft 419 kts 201°
2026-05-04 19:03 40.57411 -8.92069 23111 ft 419 kts 200°
2026-05-04 19:03 40.54583 -8.92998 23102 ft 419 kts 201°
2026-05-04 19:03 40.51756 -8.93928 23112 ft 419 kts 201°
2026-05-04 19:04 40.48929 -8.94861 23114 ft 419 kts 201°
2026-05-04 19:04 40.46103 -8.95790 23115 ft 419 kts 201°
2026-05-04 19:04 40.43278 -8.96715 23114 ft 419 kts 201°
2026-05-04 19:04 40.40450 -8.97640 23114 ft 419 kts 201°
2026-05-04 19:05 40.37623 -8.98565 23114 ft 419 kts 201°
2026-05-04 19:05 40.34791 -8.99493 23114 ft 419 kts 201°
2026-05-04 19:05 40.31969 -9.00421 23115 ft 419 kts 201°
2026-05-04 19:05 40.29142 -9.01348 23114 ft 419 kts 201°
2026-05-04 19:06 40.26317 -9.02270 23115 ft 419 kts 201°
2026-05-04 19:06 40.23491 -9.03189 23114 ft 419 kts 201°
2026-05-04 19:06 40.20658 -9.04109 23116 ft 419 kts 201°
2026-05-04 19:06 40.17831 -9.05028 23116 ft 418 kts 201°
2026-05-04 19:07 40.15004 -9.05949 23120 ft 418 kts 201°
2026-05-04 19:07 40.12216 -9.06857 23119 ft 419 kts 201°
2026-05-04 19:07 40.09396 -9.07773 23113 ft 418 kts 201°
2026-05-04 19:07 40.06572 -9.08689 23117 ft 418 kts 201°
2026-05-04 19:08 40.03748 -9.09603 23111 ft 419 kts 201°
2026-05-04 19:08 40.00917 -9.10521 23118 ft 419 kts 201°
2026-05-04 19:08 39.98086 -9.11438 23115 ft 419 kts 201°
2026-05-04 19:08 39.95253 -9.12354 23116 ft 419 kts 201°
2026-05-04 19:09 39.92419 -9.13269 23117 ft 419 kts 201°
2026-05-04 19:09 39.89584 -9.14184 23114 ft 419 kts 201°
2026-05-04 19:09 39.86757 -9.15093 23112 ft 418 kts 201°
2026-05-04 19:09 39.83933 -9.16004 23116 ft 418 kts 201°
2026-05-04 19:10 39.81115 -9.16914 23116 ft 418 kts 201°
2026-05-04 19:10 39.78294 -9.17823 23116 ft 418 kts 201°
2026-05-04 19:10 39.75458 -9.18736 23073 ft 425 kts 201°
2026-05-04 19:10 39.72543 -9.19685 22963 ft 434 kts 201°
2026-05-04 19:11 39.69597 -9.20640 23099 ft 440 kts 201°
2026-05-04 19:11 39.66618 -9.21596 23122 ft 440 kts 201°
2026-05-04 19:11 39.63649 -9.22540 23128 ft 440 kts 201°
2026-05-04 19:11 39.60675 -9.23482 23117 ft 440 kts 201°
2026-05-04 19:12 39.57691 -9.24429 23119 ft 440 kts 201°
2026-05-04 19:12 39.51741 -9.26328 23121 ft 440 kts 201°
2026-05-04 19:12 39.48769 -9.27276 23119 ft 440 kts 201°
2026-05-04 19:13 39.45796 -9.28223 23126 ft 440 kts 201°
2026-05-04 19:13 39.42820 -9.29172 22935 ft 441 kts 201°
2026-05-04 19:13 39.39848 -9.30115 22499 ft 436 kts 201°
2026-05-04 19:13 39.36913 -9.31043 21768 ft 432 kts 200°
2026-05-04 19:14 39.34004 -9.31963 21076 ft 428 kts 200°
2026-05-04 19:14 39.31124 -9.32875 20399 ft 425 kts 200°
2026-05-04 19:14 39.28267 -9.33783 19750 ft 421 kts 200°
2026-05-04 19:14 39.25430 -9.34682 19094 ft 418 kts 199°
2026-05-04 19:15 39.22615 -9.35572 18463 ft 415 kts 199°
2026-05-04 19:15 39.19825 -9.36453 17790 ft 411 kts 199°
2026-05-04 19:15 39.17062 -9.37323 17233 ft 405 kts 199°
2026-05-04 19:15 39.14383 -9.38165 16696 ft 400 kts 199°
2026-05-04 19:16 39.11695 -9.39014 16157 ft 395 kts 199°
2026-05-04 19:16 39.09041 -9.39856 15640 ft 391 kts 199°
2026-05-04 19:16 39.06413 -9.40688 15123 ft 387 kts 198°